Fort Polk, LA

12:09 AM CDT on October 23, 2019 (GMT -0500)
Fort Polk

Weather History for KAQV - August, 2019

Change the Weather History Date:

Tuesday, August 6, 2019

  Actual Average (KPOE) Record (KPOE)
Temperature  
Mean Temperature 85 °F -  
Max Temperature 95 °F 90 °F 99 °F (2011)
Min Temperature 75 °F 71 °F 69 °F (2004)
Cooling Degree Days 20    
Growing Degree Days 35 (Base 50)    
Moisture  
Dew Point 74 °F    
Average Humidity 73    
Maximum Humidity 94    
Minimum Humidity 43    
Precipitation  
Precipitation 0.00 in - - ()
Sea Level Pressure  
Sea Level Pressure 29.92 in    
Wind  
Wind Speed 1 mph (SSW)    
Max Wind Speed 6 mph    
Max Gust Speed -    
Visibility 10 miles    
Events      
Averages and records for this station are not official NWS values.
T = Trace of Precipitation, MM = Missing Value Source: NWS Daily Summary

Daily Weather History Graph

Daily Weather History Graph

Search for Another Location

Airport or City:

Astronomy

Aug. 06, 2019 Rise Set
Actual Time 6:32 AM CDT 8:05 PM CDT
Civil Twilight 6:06 AM CDT 8:31 PM CDT
Nautical Twilight 5:35 AM CDT 9:02 PM CDT
Astronomical Twilight 5:02 AM CDT 9:34 PM CDT
Moon 12:34 PM CDT (8/6) No Moon Set
Length of Visible Light 14h 24m
Length of Day
13h 32m
Waxing Crescent, 39% of the Moon is Illuminated
Aug 6
Waxing Crescent
Aug 7
First Quarter
Aug 15
Full
Aug 23
Last Quarter
Aug 30
New

Hourly Weather History & Observations

Time (CDT) Temp. Heat Index Dew Point Humidity Pressure Visibility Wind Dir Wind Speed Gust Speed Precip Events Conditions
12:56 AM 78.1 °F - 73.9 °F 87% 29.91 in 10.0 mi Calm Calm - N/A   Clear
1:56 AM 78.1 °F - 73.9 °F 87% 29.92 in 10.0 mi Calm Calm - N/A   Clear
2:56 AM 77.0 °F - 73.9 °F 90% 29.92 in 10.0 mi Calm Calm - N/A   Clear
3:56 AM 77.0 °F - 73.9 °F 90% 29.92 in 10.0 mi Calm Calm - N/A   Clear
4:56 AM 77.0 °F - 73.9 °F 90% 29.93 in 10.0 mi Calm Calm - N/A   Clear
5:56 AM 75.0 °F - 73.0 °F 94% 29.94 in 6.0 mi Calm Calm - N/A   Clear
6:56 AM 75.0 °F - 73.0 °F 94% 29.96 in 4.0 mi Calm Calm - N/A   Clear
8:56 AM 82.0 °F 88.6 °F 75.0 °F 79% 29.98 in 10.0 mi Variable 4.6 mph - N/A   Clear
9:56 AM 84.9 °F 93.3 °F 75.0 °F 72% 29.98 in 10.0 mi Variable 4.6 mph - N/A   Partly Cloudy
10:56 AM 88.0 °F 96.5 °F 73.9 °F 63% 29.98 in 10.0 mi Variable 3.5 mph - N/A   Scattered Clouds
11:56 AM 90.0 °F 96.9 °F 72.0 °F 55% 29.97 in 10.0 mi Variable 5.8 mph - N/A   Partly Cloudy
12:56 PM 93.0 °F 100.1 °F 71.1 °F 49% 29.95 in 10.0 mi Calm Calm - N/A   Partly Cloudy
1:56 PM 93.9 °F 100.8 °F 71.1 °F 47% 29.92 in 10.0 mi Variable 4.6 mph - N/A   Clear
2:56 PM 95.0 °F 102.5 °F 71.1 °F 46% 29.90 in 10.0 mi SSW 3.5 mph - N/A   Mostly Cloudy
3:56 PM 95.0 °F 100.7 °F 69.1 °F 43% 29.90 in 10.0 mi Calm Calm - N/A   Clear
4:56 PM 95.0 °F 102.5 °F 71.1 °F 46% 29.88 in 10.0 mi Calm Calm - N/A   Mostly Cloudy
5:56 PM 91.9 °F 101.3 °F 73.9 °F 55% 29.88 in 10.0 mi Variable 4.6 mph - N/A   Mostly Cloudy
6:56 PM 87.1 °F 98.8 °F 77.0 °F 72% 29.88 in 10.0 mi Calm Calm - N/A   Clear
7:56 PM 84.0 °F 92.6 °F 75.9 °F 76% 29.88 in 10.0 mi Calm Calm - N/A   Clear
8:56 PM 82.0 °F 89.4 °F 75.9 °F 82% 29.88 in 10.0 mi Calm Calm - N/A   Clear
9:56 PM 81.0 °F 87.3 °F 75.9 °F 85% 29.90 in 10.0 mi Calm Calm - N/A   Clear
10:56 PM 79.0 °F - 75.9 °F 90% 29.91 in 10.0 mi Calm Calm - N/A   Clear
11:56 PM 80.1 °F 85.4 °F 75.9 °F 87% 29.92 in 10.0 mi Calm Calm - N/A   Clear